Regional Weather Roundup
Issued by NWS Goodland, KS

Home | Current Version | Previous Version | Graphics & Text | Print | Product List | Glossary On
Versions: 1 2 3 4 5 6 7 8 9 10 11 12 13 14 15 16 17 18 19 20 21 22 23 24 25 26 27 28 29 30 31 32 33 34 35 36 37 38 39 40 41 42 43 44 45 46 47 48 49 50
789
ASUS43 KGLD 261208
RWRGLD

GOODLAND FORECAST AREA HOURLY WEATHER ROUNDUP
NATIONAL WEATHER SERVICE GOODLAND KS
600 AM MDT MON SEP 26 2016

...OFFICIAL OBSERVATIONS...

CITY           SKY/WX    TMP DP  RH WIND       PRES   REMARKS
GOODLAND KS    CLOUDY    40  32  73 W3        30.38S
HILL CITY KS   CLEAR     39  34  82 W5        30.36S HAZE
IMPERIAL NEB   CLOUDY    38  33  82 CALM      30.37S
MCCOOK NEB     CLEAR     37  33  85 W8        30.36S
AKRON CO       CLOUDY    42  30  62 SW10      30.38F
BURLINGTON CO  CLOUDY    40  34  79 SW8       30.40S
LIMON CO       CLOUDY    30  24  78 N6        30.43F
$$

...UNOFFICIAL OBSERVATIONS...

CITY           SKY/WX    TMP DP  RH WIND       PRES   REMARKS
LENORA KS        N/A     46  32  58 MISG        N/A
SHARON SPRINGS   N/A     38  33  81 W7          N/A
KIT CARSON CO    N/A     39  33  79 CALM        N/A
$$




USA.gov is the U.S. government's official web portal to all federal, state and local government web resources and services.